Content
SEND FEEDBACK

Daily
Averages
Monthly
Summary
Reunion

ST.-DENIS, REUNION


Home > Africa > Reunion
Elevation: 24 meters     Latitude: 20 53S     Longitude: 055 31E

WEATHER
 
SELECT A DAY
Number of Records: 229,710;   Date Range: 7/1/96 - 8/28/14
 
SHARE

PRINT THIS DATA

[ ← Previous Day ]
WEATHER ALMANAC - 31 JANUARY, 2013
[ Next Day → ]
[ °F ]   °C
Weather ElementAverageHighLow
Temperature26 °C28 °C (10:00 am)23.9 °C (2:00 am)
Dewpoint22.5 °C25 °C (12:04 pm)20 °C (12:30 am)
Humidity80.1 %94 % (11:00 pm)58 % (5:00 am)
Barometer1011.2 hPa1012.5 hPa (8:00 am)1009.1 hPa (5:00 am)
Wind Speed27.5 km/h40.7 km/h (8:00 pm)
Wind Gust53.8 km/h (11:00 pm)
Weather ElementAverage
Visibility10.3 km
Wind DirectionESE (119.7 °)

Weather ElementTotal
Precipitation---
Cooling Degree Days7.6 (Base 18.3)
Growing Degree Days15.9 (Base 10)
Averaged from 65 records on 31 January, 2013
WEATHER CONDITIONS BREAKOUT
WIND DIRECTION BREAKOUT
WEATHER BY HOUR - 31 JANUARY, 2013
[ °F ]   °C
Local TimeTemperatureDewpointHumidityBarometerVisibilityWind DirectionWind SpeedGust SpeedPrecipitationEventsConditions
12:00 AM24 °C21 °C83 %1012.2 hPa10 kmSE (130°)25.9 km/hMostly Cloudy
12:30 AM25 °C20 °C74 %1012.2 hPa10 kmESE (120°)24.1 km/hMostly Cloudy
1:00 AM25 °C21 °C78 %1012.2 hPa9 kmESE (120°)33.3 km/hMostly Cloudy
1:30 AM24 °C21 °C83 %1012.2 hPa10 kmSE (130°)25.9 km/hRainLight Rain
2:00 AM23.9 °C21.1 °C81 %1011.9 hPa14.5 kmSE (130°)24.1 km/hRainLight Rain
2:00 AM24 °C21 °C83 %1011.2 hPa10 kmSE (130°)24.1 km/hRainLight Rain
2:30 AM24 °C21 °C83 %1011.2 hPa10 kmSE (140°)35.2 km/hRainLight Rain
3:00 AM25 °C21 °C78 %1010.2 hPa10 kmSE (140°)27.8 km/h48.1 km/hOvercast
3:00 AM24.4 °C21.1 °C77 %1011.2 hPa59.5 kmSE (140°)27.8 km/hClear
3:30 AM25 °C21 °C78 %1010.2 hPa10 kmESE (120°)31.5 km/hOvercast
4:00 AM25.6 °C20.6 °C66 %1010.8 hPa9.7 kmSE (130°)29.6 km/hRainLight Rain
4:00 AM26 °C21 °C74 %1010.2 hPa10 kmSE (130°)31.5 km/hMostly Cloudy
4:30 AM26 °C21 °C74 %1010.2 hPa10 kmESE (120°)29.6 km/hMostly Cloudy
5:00 AM26.7 °C20 °C58 %1010.2 hPa9.7 kmESE (120°)37 km/hPartly Cloudy
5:00 AM27 °C20 °C65 %1009.1 hPa10 kmESE (120°)37 km/hMostly Cloudy
5:30 AM27 °C20 °C65 %1009.1 hPa10 kmESE (120°)29.6 km/hMostly Cloudy
6:00 AM27 °C20 °C65 %1010.2 hPa10 kmSE (130°)35.2 km/hMostly Cloudy
6:00 AM27.2 °C20.6 °C58 %1010.8 hPa9.7 kmSE (130°)33.3 km/hPartly Cloudy
6:30 AM27 °C21 °C70 %1011.2 hPa10 kmSE (130°)33.3 km/hMostly Cloudy
7:00 AM27 °C21 °C70 %1011.2 hPa10 kmSE (130°)35.2 km/hMostly Cloudy
7:30 AM27 °C21 °C70 %1011.2 hPa10 kmSE (140°)37 km/hMostly Cloudy
8:00 AM27.2 °C21.1 °C61 %1012.5 hPa59.5 kmSE (130°)33.3 km/hClear
8:00 AM27 °C21 °C70 %1012.2 hPa10 kmSE (130°)33.3 km/hMostly Cloudy
8:30 AM27 °C22 °C74 %1012.2 hPa10 kmSE (130°)25.9 km/hMostly Cloudy
9:00 AM27 °C22 °C74 %1011.2 hPa10 kmSE (140°)33.3 km/hMostly Cloudy
9:00 AM27.2 °C21.7 °C64 %1011.9 hPa9.7 kmSE (140°)33.3 km/hPartly Cloudy
9:35 AM27 °C22 °C74 %1011.2 hPa10 kmSE (130°)31.5 km/hMostly Cloudy
10:00 AM27.8 °C22.2 °C65 %1011.9 hPa9.7 kmSE (130°)29.6 km/hPartly Cloudy
10:00 AM28 °C22 °C70 %1011.2 hPa10 kmSE (130°)29.6 km/hMostly Cloudy
10:30 AM28 °C23 °C74 %1011.2 hPa5 kmSE (140°)33.3 km/hRainRain Showers
11:00 AM26.1 °C23.3 °C82 %1011.9 hPa4.8 kmEast (90°)20.4 km/hRainLight Rain Showers
11:00 AM26 °C24 °C89 %1011.2 hPa5 kmEast (90°)22.2 km/hRainLight Rain Showers
12:00 PM26.7 °C24.4 °C86 %1012.5 hPa4.8 kmESE (110°)16.7 km/hClear
12:04 PM27 °C25 °C89 %1012.2 hPa10 kmESE (110°)18.5 km/hRainLight Rain Showers
12:34 PM27 °C24 °C84 %1012.2 hPa10 kmESE (110°)22.2 km/hRainLight Rain Showers
1:00 PM27 °C24 °C84 %1012.2 hPa10 kmESE (120°)22.2 km/hRainLight Rain Showers
1:30 PM27 °C24 °C84 %1011.2 hPa10 kmSE (130°)22.2 km/hMostly Cloudy
2:00 PM27.2 °C23.9 °C78 %1011.2 hPa3.2 kmEast (90°)18.5 km/hRainLight Rain Showers
2:00 PM27 °C24 °C84 %1011.2 hPa4 kmEast (90°)18.5 km/hMostly Cloudy
2:30 PM27 °C24 °C84 %1011.2 hPa2.6 kmEast (90°)13 km/hRainRain Showers
3:00 PM26 °C24 °C89 %1010.2 hPa2.6 kmESE (120°)18.5 km/hRainRain Showers
3:00 PM26.1 °C23.9 °C83 %1010.8 hPa3.2 kmESE (120°)18.5 km/hRainHeavy Rain Showers
3:30 PM25 °C23 °C89 %1010.2 hPa8 kmESE (120°)20.4 km/hRainLight Rain Showers
4:00 PM24.4 °C22.8 °C86 %1010.8 hPa8 kmSE (140°)24.1 km/hRainLight Rain Showers
4:00 PM25 °C23 °C89 %1010.2 hPa8 kmSE (140°)22.2 km/hRainLight Rain Showers
4:30 PM24 °C22 °C89 %1010.2 hPa3.1 kmEast (80°)20.4 km/h44.4 km/hRainLight Rain Showers
5:00 PM23.9 °C22.2 °C88 %1010.2 hPa9.7 kmSE (130°)24.1 km/hRainLight Rain Showers
5:00 PM24 °C22 °C89 %1010.2 hPa10 kmSE (130°)24.1 km/hRainLight Rain Showers
5:30 PM24 °C22 °C89 %1010.2 hPa10 kmSE (130°)33.3 km/hRainLight Rain Showers
6:00 PM25 °C23 °C89 %1010.2 hPa10 kmSE (140°)24.1 km/hRainLight Rain Showers
6:30 PM26 °C24 °C89 %1011.2 hPa4 kmEast (90°)25.9 km/h44.4 km/hRainLight Rain Showers
7:00 PM26 °C24 °C89 %1011.2 hPa10 kmESE (120°)25.9 km/hRainLight Rain
7:30 PM26 °C24 °C89 %1010.2 hPa10 kmESE (120°)27.8 km/hOvercast
8:00 PM26.1 °C23.9 °C85 %1010.8 hPa30.6 kmSE (130°)40.7 km/hRainLight Rain
8:00 PM26 °C24 °C89 %1010.2 hPa10 kmSE (130°)40.7 km/hRainLight Rain
8:30 PM26 °C24 °C89 %1011.2 hPa10 kmSE (130°)31.5 km/hOvercast
9:00 PM26 °C24 °C89 %1011.2 hPaESE (120°)22.2 km/hRainLight Rain
9:00 PM26.1 °C23.9 °C83 %1011.9 hPa11.3 kmESE (120°)22.2 km/hRainLight Rain
9:30 PM26 °C24 °C89 %1011.2 hPa1.6 kmESE (110°)27.8 km/hRainHeavy Rain
10:00 PM26.1 °C24.4 °C86 %1011.9 hPa4.8 kmESE (110°)22.2 km/hRainLight Rain
10:00 PM26 °C24 °C89 %1011.2 hPaESE (110°)22.2 km/hRainLight Rain
10:30 PM26 °C24 °C89 %1011.2 hPaEast (90°)24.1 km/hRainHeavy Rain
11:00 PM25.6 °C23.9 °C86 %1012.5 hPa1.6 kmENE (70°)33.3 km/hRainLight Rain
11:00 PM25 °C24 °C94 %1012.2 hPa3.5 kmENE (70°)33.3 km/h53.8 km/hRainLight Rain
11:30 PM26 °C24 °C89 %1012.2 hPa5 kmEast (80°)31.5 km/hRainLight Rain
Hourly data recorded from FMEE, located 0 kilometers away from St.-Denis, Reunion







STORIES FROM OUR PARTNERS